Location: A�t �Alizem
(31.2076°N, 8.7872°W)
Time: 15:04:54
(UTC+00:00)

CZ-4 R/B - Pass Details

Date: 27 November 2020
Orbit: 532 x 598 km, 97.7° (Epoch: 25 January)

Event Time Altitude Azimuth Distance (km) Brightness Sun altitude
Rises 19:04:52 0° 159° (SSE) 2,677 4.8 -19.4°
Reaches altitude 10° 19:06:59 10° 155° (SSE) 1,797 3.8 -19.9°
Enters shadow 19:08:50 27° 146° (SE) 1,071 2.6 -20.3°
Exits shadow 19:15:09 - 356° (N) 2,029 4.1 -21.6°
Sets 19:16:53 0° 353° (N) 2,752 4.8 -21.9°
